Date String (YYYY-MM-DD hh:mm:ss) UTC,Instrument flags,Ambient pressure (hPa),Sample flow (lpm),Bypass flow (lpm),Sample temperature (°C),Ambient temperature (°C),ASC tube jacket temperature (°C),LED temperature (°C),Box temperature (°C),Sample RH (%),Span deviation,Mass concentration (μg/m³),Mass concentration (μg/m³),Mass concentration (μg/m³)
DateTimeUTC,F1_M11,P_M11,Q1_M11,Q2_M11,T1_M11,T2_M11,T3_M11,T4_M11,T5_M11,U1_M11,ZSPAN_M11,X0_M11,X2_M11,X1_M11
2022-04-10 01:00:00,,0811.2,5.01,0.00,29.3,28.0,00.0,38.3,31.0,05.3,0000.0,0009.32,0003.93,0001.96
2022-04-10 01:01:00,,0811.2,5.00,0.00,29.3,28.1,00.0,38.3,31.1,05.3,0000.0,0009.35,0003.94,0001.96
2022-04-10 01:02:00,,0811.3,5.00,0.00,29.3,28.2,00.0,38.3,31.1,05.4,0000.0,0009.65,0003.99,0001.97
2022-04-10 01:03:00,,0811.2,5.00,0.00,29.4,28.3,00.0,38.3,31.1,05.3,0000.0,0009.93,0004.06,0001.98
2022-04-10 01:04:00,,0811.2,4.99,0.00,29.4,28.3,00.0,38.3,31.1,05.3,0000.0,0010.35,0004.02,0001.97
2022-04-10 01:05:00,,0811.3,5.02,0.00,29.3,28.4,00.0,38.3,31.1,05.3,0000.0,0010.37,0003.94,0001.97
2022-04-10 01:06:00,,0811.2,4.98,0.00,29.4,28.4,00.0,38.3,31.1,05.4,0000.0,0009.84,0003.89,0001.94
2022-04-10 01:07:00,,0811.2,5.00,0.00,29.4,28.4,00.0,38.3,31.1,05.4,0000.0,0009.89,0003.88,0001.95
2022-04-10 01:08:00,,0811.2,5.01,0.00,29.4,28.4,00.0,38.3,31.1,05.4,0000.0,0010.01,0003.87,0001.94
2022-04-10 01:09:00,,0811.1,5.00,0.00,29.4,28.5,00.0,38.3,31.1,05.5,0000.0,0010.07,0003.88,0001.95
2022-04-10 01:10:00,,0811.1,4.99,0.00,29.4,28.5,00.0,38.3,31.1,05.5,0000.0,0010.12,0003.90,0001.95
2022-04-10 01:11:00,,0811.1,5.01,0.00,29.4,28.5,00.0,38.4,31.1,05.5,0000.0,0010.31,0003.89,0001.96
2022-04-10 01:12:00,,0811.2,5.01,0.00,29.4,28.5,00.0,38.4,31.1,05.5,0000.0,0010.33,0003.82,0001.98
2022-04-10 01:13:00,,0811.2,4.99,0.00,29.4,28.5,00.0,38.4,31.2,05.5,0000.0,0009.97,0003.83,0001.98
2022-04-10 01:14:00,,0811.2,5.01,0.00,29.4,28.6,00.0,38.4,31.2,05.5,0000.0,0010.41,0003.82,0001.97
2022-04-10 01:15:00,,0811.2,4.99,0.00,29.4,28.6,00.0,38.4,31.1,05.5,0000.0,0010.68,0003.87,0001.97
2022-04-10 01:16:00,,0811.2,4.99,0.00,29.4,28.6,00.0,38.4,31.1,05.5,0000.0,0010.79,0003.97,0001.98
2022-04-10 01:17:00,,0811.1,5.02,0.00,29.4,28.6,00.0,38.4,31.2,05.5,0000.0,0011.50,0004.00,0001.99
2022-04-10 01:18:00,,0811.2,4.98,0.00,29.4,28.7,00.0,38.4,31.2,05.5,0000.0,0011.72,0004.02,0001.98
2022-04-10 01:19:00,,0811.2,5.01,0.00,29.5,28.7,00.0,38.4,31.2,05.5,0000.0,0011.62,0004.01,0001.98
2022-04-10 01:20:00,,0811.2,4.99,0.00,29.5,28.7,00.0,38.4,31.2,05.5,0000.0,0011.92,0004.01,0001.97
2022-04-10 01:21:00,,0811.2,4.99,0.00,29.5,28.7,00.0,38.4,31.2,05.5,0000.0,0012.03,0003.98,0001.96
2022-04-10 01:22:00,,0811.1,5.01,0.00,29.5,28.7,00.0,38.4,31.3,05.5,0000.0,0011.98,0004.01,0001.97
2022-04-10 01:23:00,,0811.2,5.01,0.00,29.5,28.8,00.0,38.5,31.3,05.6,0000.0,0011.56,0004.01,0001.95
2022-04-10 01:24:00,,0811.2,4.99,0.00,29.6,28.8,00.0,38.5,31.3,05.6,0000.0,0012.31,0003.97,0001.92
2022-04-10 01:25:00,,0811.2,5.01,0.00,29.6,28.8,00.0,38.5,31.3,05.6,0000.0,0012.63,0003.93,0001.91
2022-04-10 01:26:00,,0811.2,4.99,0.00,29.6,28.8,00.0,38.5,31.3,05.6,0000.0,0012.94,0003.96,0001.93
2022-04-10 01:27:00,,0811.2,5.01,0.00,29.6,28.8,00.0,38.5,31.4,05.6,0000.0,0013.01,0003.93,0001.94
2022-04-10 01:28:00,,0811.2,4.99,0.00,29.6,28.9,00.0,38.5,31.4,05.6,0000.0,0012.94,0003.92,0001.96
2022-04-10 01:29:00,,0811.2,5.02,0.00,29.7,28.9,00.0,38.5,31.4,05.6,0000.0,0012.79,0003.90,0001.97
2022-04-10 01:30:00,,0811.3,4.99,0.00,29.7,28.8,00.0,38.6,31.4,05.6,0000.0,0014.17,0003.91,0001.96
2022-04-10 01:31:00,,0811.3,5.00,0.00,29.6,26.9,00.0,38.6,31.0,05.6,0000.0,0016.35,0003.91,0001.97
2022-04-10 01:32:00,,0811.3,5.02,0.00,29.5,25.6,00.0,38.5,30.7,05.7,0000.0,0016.57,0003.92,0001.97
2022-04-10 01:33:00,,0811.2,4.99,0.00,29.4,25.8,00.0,38.5,30.7,05.7,0000.0,0016.47,0003.87,0001.94
2022-04-10 01:34:00,,0811.2,5.01,0.00,29.3,26.2,00.0,38.4,30.8,05.7,0000.0,0016.53,0003.86,0001.93
2022-04-10 01:35:00,,0811.2,5.01,0.00,29.3,26.6,00.0,38.4,30.9,05.8,0000.0,0015.95,0003.86,0001.95
2022-04-10 01:36:00,,0811.2,5.00,0.00,29.3,27.0,00.0,38.4,31.0,05.7,0000.0,0015.18,0003.84,0001.97
2022-04-10 01:37:00,,0811.2,4.99,0.00,29.3,27.3,00.0,38.3,31.0,05.7,0000.0,0014.22,0003.83,0001.96
2022-04-10 01:38:00,,0811.2,5.01,0.00,29.3,27.5,00.0,38.3,31.0,05.6,0000.0,0013.79,0003.79,0001.96
2022-04-10 01:39:00,,0811.2,5.00,0.00,29.3,27.7,00.0,38.3,31.0,05.6,0000.0,0013.70,0003.81,0001.96
2022-04-10 01:40:00,,0811.2,5.01,0.00,29.3,27.9,00.0,38.3,31.0,05.7,0000.0,0013.72,0003.82,0001.94
2022-04-10 01:41:00,,0811.2,4.99,0.00,29.3,28.0,00.0,38.3,31.0,05.7,0000.0,0013.16,0003.77,0001.94
2022-04-10 01:42:00,,0811.2,4.99,0.00,29.3,28.1,00.0,38.3,31.1,05.6,0000.0,0010.93,0003.71,0001.93
2022-04-10 01:43:00,,0811.2,5.02,0.00,29.4,28.2,00.0,38.3,31.2,05.6,0000.0,0010.37,0003.70,0001.92
2022-04-10 01:44:00,,0811.4,4.99,0.00,29.4,28.3,00.0,38.3,31.2,05.7,0000.0,0010.04,0003.67,0001.92
2022-04-10 01:45:00,,0811.3,5.01,0.00,29.4,28.3,00.0,38.3,31.2,05.7,0000.0,0010.11,0003.69,0001.92
2022-04-10 01:46:00,,0811.3,4.99,0.00,29.4,28.4,00.0,38.3,31.2,05.7,0000.0,0010.29,0003.69,0001.91
2022-04-10 01:47:00,,0811.4,4.99,0.00,29.4,28.4,00.0,38.3,31.2,05.7,0000.0,0011.36,0003.70,0001.89
2022-04-10 01:48:00,,0811.3,5.02,0.00,29.5,28.5,00.0,38.4,31.2,05.7,0000.0,0011.43,0003.70,0001.86
2022-04-10 01:49:00,,0811.4,4.98,0.00,29.5,28.5,00.0,38.4,31.2,05.7,0000.0,0011.31,0003.67,0001.85
2022-04-10 01:50:00,,0811.4,5.02,0.00,29.5,28.5,00.0,38.4,31.2,05.7,0000.0,0011.48,0003.67,0001.85
2022-04-10 01:51:00,,0811.4,5.00,0.00,29.5,28.6,00.0,38.4,31.3,05.7,0000.0,0011.96,0003.65,0001.84
2022-04-10 01:52:00,,0811.4,4.99,0.00,29.5,28.6,00.0,38.4,31.3,05.7,0000.0,0011.89,0003.63,0001.84
2022-04-10 01:53:00,,0811.4,5.01,0.00,29.6,28.5,00.0,38.4,31.3,05.7,0000.0,0011.33,0003.64,0001.84
2022-04-10 01:54:00,,0811.4,4.99,0.00,29.6,28.5,00.0,38.4,31.3,05.7,0000.0,0010.86,0003.59,0001.83
2022-04-10 01:55:00,,0811.4,5.01,0.00,29.6,28.6,00.0,38.4,31.3,05.7,0000.0,0010.87,0003.60,0001.84
2022-04-10 01:56:00,,0811.3,4.99,0.00,29.6,28.6,00.0,38.5,31.4,05.8,0000.0,0011.67,0003.61,0001.85
2022-04-10 01:57:00,,0811.3,5.01,0.00,29.7,28.6,00.0,38.5,31.4,05.7,0000.0,0011.58,0003.57,0001.83
2022-04-10 01:58:00,,0811.3,4.99,0.00,29.7,28.6,00.0,38.5,31.4,05.7,0000.0,0010.66,0003.57,0001.83
2022-04-10 01:59:00,,0811.2,5.02,0.00,29.7,28.6,00.0,38.5,31.4,05.8,0000.0,0012.14,0003.56,0001.84
